860 visiteurs
Prévisions de votre ville :
Vigilance : 2 départements Mise à jour le 18/10/2018 à 16:00 - Voir la carte

Paris Roissy CDG (95380) le 18/10/2018 à 18:30 Choisir station

16°C 68 % NNE Vit. moyenne 26 kmh/h

Relevés météo quotidiens pour la station de :

UTC
S: Synop
M: Metar
Loc T°C
(°C)
Td
(°C)
HR
(%)
Vis
(km)
Néb
(octa)
Vent
(km/h)
Pression
(mb)
Précipitations
(mm)
Temps
              MOY
10 min
DIR RAF 1h MESURE VAR SUR 3h    
S 00 h 02h 19.2 12.2 64 20 7/8 15 41 1008.7 0.0/3h 0.0/3h
S 01 h 03h 18.5 12.5 68 55 8/8 6 15 1008.7 0.0/3h 0.0/1h
S 02 h 04h 17.3 12.8 75 30 7/8 6 35 1008.8 +0.2/3h 0.0/1h
S 03 h 05h 17.2 12.7 75 13 7/8 4 6 1008.3 -0.4/3h 0.0/1h
S 04 h 06h 16.7 12.8 78 30 6/8 15 28 1008.7 -0.1/3h 0.0/1h
S 05 h 07h 16.0 12.9 82 40 /8 7 15 1008.8 -0.1/3h 0.0/1h
S 06 h 08h 16.1 13.4 84 30 3/8 13 20 1009.1 +0.7/3h 0.0/3h
S 07 h 09h 17.2 13.5 79 30 2/8 15 24 1009.4 +0.7/3h 0.0/1h
S 08 h 10h 18.6 13.7 73 35 /8 13 26 1009.5 +0.8/3h 0.0/1h
S 09 h 11h 20.8 13.5 63 30 1/8 20 35 1009.4 +0.5/3h 0.0/3h
S 10 h 12h 22.3 13.4 57 30 1/8 9 19 1009.1 +0.1/3h 0.0/1h
S 11 h 13h 23.7 13.3 52 30 1/8 20 35 1008.8 -0.5/3h 0.0/1h
S 12 h 14h 24.6 12.5 47 30 1/8 20 39 1008.4 -0.9/3h 0.0/6h - 0.0/3h
S 13 h 15h 25.0 11.9 44 30 3/8 22 39 1008.2 -0.8/3h 0.0/1h
S 14 h 16h 25.7 9.9 37 30 6/8 24 54 1008.1 -0.7/3h 0.0/1h
S 15 h 17h 25.2 9.9 38 30 6/8 19 48 1008.1 -0.3/3h 0.0/3h
S 16 h 18h 25.2 9.9 38 30 7/8 17 28 1008.5 +0.3/3h 0.0/1h
S 17 h 19h 23.7 11.1 45 30 7/8 28 44 1009.2 +1.1/3h 0.0/1h
S 18 h 20h 20.0 13.9 68 12 8/8 19 31 1010.4 +2.1/3h 0.2/12h - 0.2/3h
S 19 h 21h 18.1 14.4 79 17 7/8 13 39 1010.9 +2.2/3h 0.6/1h
S 20 h 22h 16.3 14.3 88 3.8 7/8 17 54 1012.7 +3.2/3h 5.0/1h
S 21 h 23h 15.6 14.1 91 40 /8 11 22 1013.5 +2.9/3h 5.0/3h
S 22 h 00h 15.2 13.7 91 40 /8 6 11 1014.0 +2.9/3h 0.0/1h
S 23 h 01h 15.0 14.0 94 17 1/8 7 19 1014.3 +1.5/3h 0.0/1h
evolution des temperatures
cumul des precipitations
vent moyen et rafales
pression atmospherique

Un tiret (-) signifie que les données ne sont pas disponibles.

Passez la souris sur les pictos temps pour avoir plus de précisions. Passez les flèches sur l'icône de la direction du vent pour voir la direction précise en degrés.

Les données de l'heure en cours sont disponibles à partir de H+15 minutes.


S signifie station Synop, plus complète qu'une station Metar (M). Il y a +1h de différence entre l'heure UTC et l'heure légale en hiver et +2h en été.

Td est la mesure du point de rosée.

HR est l'humidité relative/p>

Vis est la visibilité

Néb est la nébulosité du ciel (couverture nuageuse) exprimée en octas (de 0/8 à 8/8).

Vent moy 10 min donne le vent moyen sur les 10 minutes qui précèdent le relevé.

Vent raf 1h donne la rafale maximale mesurée dans l'heure qui précède le relevé.


Les données les plus anciennes remontent à avril 2014.

Les données présentées sur cette page proviennent des stations météo officielles. Les relevés sont effectués aux normes en vigueur (anémomètre à 10m de haut, thermomètre sous abri normalisé à 2m du sol...)

Météo 60 décline toute responsabilité en cas d'absence de données, d'erreurs, de mauvaise utilisation ou interprétation et n'est pas habilité à fournir des certificats intempéries.